Location: Eisingen in Unterfranken
(49.7591°N, 9.8347°E)
Time: 01:35:17
(UTC+01:00)

BlueWalker 3 - Pass Details

Date: 30 November 2022
Orbit: 499 x 517 km, 53.2° (Epoch: 26 January)

Event Time Altitude Azimuth Distance (km) Brightness Sun altitude
Rises 17:25:33 0° 253° (WSW) 2,631 7.9 -9.7°
Reaches altitude 10° 17:27:46 10° 256° (WSW) 1,742 6.3 -10.0°
Maximum altitude 17:31:42 73° 341° (NNW) 541 2.0 -10.6°
Enters shadow 17:34:43 16° 65° (ENE) 1,379 3.5 -11.1°
